CXA8678 ZSPD-ZSAM

Flight info

Callsign CXA8678
Flight time 1h 47m
Altitude 25600
Route K0820S0780 NXD94D NXD W131 AKDIM A470 ENVEN ENVEN8X
Aircraft B738/M-SDE2E3FGHIRWXY/LB1

Departure

Time 2026-04-30 10:21
Airport Shanghai Pudong International Airport (ZSPD)

Arrival

Time 2026-04-30 12:08
Airport Xiamen Gaoqi International Airport (ZSAM)
Time Latitude Longitude Altitude Speed Heading
2026-04-30 09:27 31.13282 121.81341 21 ft 0 kts 46°
2026-04-30 10:08 31.13280 121.81338 21 ft 2 kts 46°
2026-04-30 10:08 31.13270 121.81325 21 ft 2 kts 46°
2026-04-30 10:08 31.13259 121.81313 21 ft 2 kts 46°
2026-04-30 10:09 31.13249 121.81300 21 ft 2 kts 46°
2026-04-30 10:09 31.13238 121.81288 21 ft 2 kts 46°
2026-04-30 10:09 31.13229 121.81278 21 ft 0 kts 46°
2026-04-30 10:09 31.13220 121.81268 21 ft 2 kts 21°
2026-04-30 10:10 31.13205 121.81266 21 ft 2 kts 349°
2026-04-30 10:10 31.13191 121.81273 21 ft 2 kts 317°
2026-04-30 10:10 31.13183 121.81287 21 ft 2 kts 285°
2026-04-30 10:10 31.13182 121.81303 21 ft 0 kts 256°
2026-04-30 10:11 31.13184 121.81310 21 ft 1 kts 250°
2026-04-30 10:11 31.13185 121.81313 21 ft 0 kts 251°
2026-04-30 10:14 31.13184 121.81309 21 ft 0 kts 249°
2026-04-30 10:14 31.13165 121.81280 21 ft 8 kts 205°
2026-04-30 10:14 31.13124 121.81283 21 ft 4 kts 165°
2026-04-30 10:15 31.13115 121.81285 21 ft 0 kts 166°
2026-04-30 10:15 31.13070 121.81302 21 ft 13 kts 161°
2026-04-30 10:15 31.12982 121.81229 21 ft 24 kts 252°
2026-04-30 10:15 31.12914 121.80985 21 ft 38 kts 253°
2026-04-30 10:16 31.12849 121.80750 21 ft 22 kts 251°
2026-04-30 10:16 31.12807 121.80598 21 ft 19 kts 252°
2026-04-30 10:16 31.12774 121.80485 21 ft 7 kts 252°
2026-04-30 10:17 31.12745 121.80379 21 ft 15 kts 253°
2026-04-30 10:17 31.12775 121.80303 21 ft 0 kts 345°
2026-04-30 10:17 31.12826 121.80286 21 ft 16 kts 343°
2026-04-30 10:18 31.12881 121.80236 21 ft 6 kts 269°
2026-04-30 10:18 31.12880 121.80227 21 ft 0 kts 264°
2026-04-30 10:18 31.12877 121.80205 21 ft 9 kts 258°
2026-04-30 10:19 31.12935 121.79981 21 ft 3 kts 252°
2026-04-30 10:19 31.12927 121.79951 21 ft 10 kts 252°
2026-04-30 10:19 31.12902 121.79836 21 ft 14 kts 279°
2026-04-30 10:19 31.12934 121.79805 21 ft 0 kts 340°
2026-04-30 10:20 31.12986 121.79784 21 ft 42 kts 342°
2026-04-30 10:21 31.13644 121.79537 22 ft 150 kts 343°
2026-04-30 10:21 31.14752 121.79097 496 ft 160 kts 342°
2026-04-30 10:21 31.15788 121.78702 558 ft 149 kts 346°
2026-04-30 10:21 31.16781 121.78423 878 ft 147 kts 343°
2026-04-30 10:22 31.17724 121.77979 1351 ft 144 kts 337°
2026-04-30 10:22 31.18654 121.77544 1856 ft 143 kts 341°
2026-04-30 10:22 31.19585 121.77169 2347 ft 142 kts 340°
2026-04-30 10:22 31.20525 121.76792 2841 ft 148 kts 340°
2026-04-30 10:23 31.21554 121.76376 3375 ft 168 kts 340°
2026-04-30 10:23 31.22700 121.75915 3880 ft 177 kts 340°
2026-04-30 10:23 31.23887 121.75436 4383 ft 182 kts 340°
2026-04-30 10:23 31.25071 121.74960 4905 ft 182 kts 340°
2026-04-30 10:24 31.26323 121.74455 5492 ft 204 kts 340°
2026-04-30 10:24 31.27732 121.73888 6064 ft 226 kts 340°
2026-04-30 10:24 31.29289 121.73262 6662 ft 245 kts 340°
2026-04-30 10:24 31.30955 121.72585 7251 ft 254 kts 337°
2026-04-30 10:25 31.32437 121.71468 7768 ft 256 kts 311°
2026-04-30 10:25 31.33200 121.69596 7886 ft 259 kts 280°
2026-04-30 10:25 31.32940 121.67522 8098 ft 268 kts 251°
2026-04-30 10:25 31.31988 121.65575 8500 ft 287 kts 247°
2026-04-30 10:26 31.31427 121.63330 8972 ft 291 kts 272°
2026-04-30 10:26 31.31669 121.60957 9466 ft 292 kts 284°
2026-04-30 10:26 31.32005 121.58647 9958 ft 295 kts 279°
2026-04-30 10:26 31.32098 121.56191 10441 ft 313 kts 272°
2026-04-30 10:27 31.31905 121.53597 10952 ft 320 kts 266°
2026-04-30 10:27 31.31536 121.51027 11464 ft 326 kts 264°
2026-04-30 10:27 31.31093 121.48446 11908 ft 325 kts 263°
2026-04-30 10:27 31.30637 121.45866 12397 ft 325 kts 263°
2026-04-30 10:28 31.30186 121.43262 12903 ft 328 kts 263°
2026-04-30 10:28 31.29739 121.40633 13420 ft 327 kts 263°
2026-04-30 10:28 31.29300 121.38013 13887 ft 330 kts 263°
2026-04-30 10:28 31.28860 121.35367 14388 ft 330 kts 263°
2026-04-30 10:29 31.28402 121.32740 14886 ft 332 kts 259°
2026-04-30 10:29 31.27372 121.30274 15406 ft 346 kts 238°
2026-04-30 10:29 31.25490 121.28409 15882 ft 364 kts 220°
2026-04-30 10:29 31.23260 121.26928 16376 ft 367 kts 217°
2026-04-30 10:30 31.21042 121.25455 16879 ft 368 kts 220°
2026-04-30 10:30 31.18892 121.23812 17369 ft 363 kts 224°
2026-04-30 10:30 31.16856 121.22051 17872 ft 361 kts 227°
2026-04-30 10:30 31.14882 121.20203 18387 ft 361 kts 228°
2026-04-30 10:31 31.12967 121.18359 18853 ft 362 kts 229°
2026-04-30 10:31 31.11006 121.16450 19343 ft 365 kts 229°
2026-04-30 10:31 31.09076 121.14588 19855 ft 360 kts 229°
2026-04-30 10:31 31.07077 121.12660 20356 ft 366 kts 230°
2026-04-30 10:32 31.05305 121.10622 20842 ft 354 kts 238°
2026-04-30 10:32 31.03947 121.08276 21325 ft 347 kts 250°
2026-04-30 10:32 31.03073 121.05685 21809 ft 339 kts 260°
2026-04-30 10:32 31.02714 121.03000 22290 ft 334 kts 269°
2026-04-30 10:33 31.02651 121.00610 22702 ft 334 kts 271°
2026-04-30 10:33 31.02609 120.99228 22948 ft 335 kts 270°
2026-04-30 10:33 31.02413 120.96464 23455 ft 340 kts 266°
2026-04-30 10:34 31.02050 120.93747 23940 ft 345 kts 262°
2026-04-30 10:34 31.01543 120.91005 24419 ft 346 kts 261°
2026-04-30 10:34 31.00953 120.88280 24931 ft 350 kts 260°
2026-04-30 10:34 31.00312 120.85545 25431 ft 353 kts 258°
2026-04-30 10:35 30.99629 120.82736 25931 ft 356 kts 258°
2026-04-30 10:35 30.98943 120.79966 26429 ft 355 kts 258°
2026-04-30 10:35 30.98256 120.77219 26930 ft 351 kts 258°
2026-04-30 10:35 30.97581 120.74526 27425 ft 350 kts 258°
2026-04-30 10:36 30.96892 120.71773 27645 ft 351 kts 258°
2026-04-30 10:36 30.96212 120.69067 27663 ft 350 kts 258°
2026-04-30 10:36 30.95521 120.66302 27674 ft 358 kts 258°
2026-04-30 10:36 30.94825 120.63519 27673 ft 360 kts 258°
2026-04-30 10:37 30.94072 120.60703 27668 ft 362 kts 256°
2026-04-30 10:37 30.93093 120.57996 27665 ft 366 kts 249°
2026-04-30 10:37 30.91686 120.55515 27676 ft 373 kts 240°
2026-04-30 10:37 30.89866 120.53280 27676 ft 384 kts 232°
2026-04-30 10:38 30.87772 120.51300 27677 ft 392 kts 226°
2026-04-30 10:38 30.85416 120.49620 27677 ft 403 kts 217°
2026-04-30 10:38 30.82765 120.48478 27684 ft 420 kts 207°
2026-04-30 10:38 30.79812 120.47894 27683 ft 439 kts 197°
2026-04-30 10:39 30.76694 120.47871 27689 ft 448 kts 188°
2026-04-30 10:39 30.73577 120.48422 27688 ft 464 kts 177°
2026-04-30 10:39 30.70480 120.49805 27688 ft 486 kts 163°
2026-04-30 10:39 30.67462 120.51466 27685 ft 475 kts 171°
2026-04-30 10:40 30.64310 120.52316 27683 ft 448 kts 187°
2026-04-30 10:40 30.61302 120.52115 27682 ft 426 kts 205°
2026-04-30 10:40 30.58602 120.50933 27688 ft 394 kts 221°
2026-04-30 10:40 30.56472 120.49073 27870 ft 376 kts 233°
2026-04-30 10:41 30.54788 120.46794 28258 ft 366 kts 244°
2026-04-30 10:41 30.53557 120.44241 28635 ft 358 kts 251°
2026-04-30 10:41 30.52609 120.41618 29000 ft 355 kts 253°
2026-04-30 10:41 30.51715 120.38924 29377 ft 353 kts 254°
2026-04-30 10:42 30.50850 120.36298 29740 ft 350 kts 255°
2026-04-30 10:42 30.49975 120.33629 30090 ft 352 kts 255°
2026-04-30 10:42 30.48231 120.28316 30187 ft 348 kts 254°
2026-04-30 10:43 30.46510 120.23079 30196 ft 346 kts 255°
2026-04-30 10:43 30.44803 120.17877 30196 ft 351 kts 255°
2026-04-30 10:44 30.43357 120.12483 30194 ft 350 kts 260°
2026-04-30 10:44 30.41743 120.07140 30185 ft 362 kts 247°
2026-04-30 10:45 30.40003 120.04937 30186 ft 388 kts 226°
2026-04-30 10:45 30.37425 120.03568 30196 ft 419 kts 208°
2026-04-30 10:45 30.34475 120.02975 30195 ft 437 kts 199°
2026-04-30 10:45 30.31453 120.02698 30188 ft 439 kts 196°
2026-04-30 10:46 30.25361 120.02420 30189 ft 439 kts 195°
2026-04-30 10:46 30.19204 120.02201 30185 ft 440 kts 195°
2026-04-30 10:47 30.13042 120.02008 30189 ft 442 kts 195°
2026-04-30 10:47 30.06876 120.01817 30188 ft 442 kts 195°
2026-04-30 10:48 30.00688 120.01622 30179 ft 443 kts 195°
2026-04-30 10:48 29.97609 120.01489 29788 ft 434 kts 198°
2026-04-30 10:48 29.94687 120.00974 29487 ft 408 kts 206°
2026-04-30 10:49 29.89165 120.00283 29440 ft 402 kts 188°
2026-04-30 10:49 29.86367 120.00980 29433 ft 413 kts 176°
2026-04-30 10:49 29.83600 120.02134 29427 ft 431 kts 171°
2026-04-30 10:50 29.80765 120.03439 29437 ft 447 kts 170°
2026-04-30 10:50 29.77797 120.04811 29408 ft 462 kts 170°
2026-04-30 10:50 29.71709 120.07600 29411 ft 478 kts 170°
2026-04-30 10:51 29.65474 120.10432 29364 ft 480 kts 170°
2026-04-30 10:51 29.59223 120.13257 29388 ft 478 kts 170°
2026-04-30 10:52 29.56119 120.14659 29638 ft 477 kts 170°
2026-04-30 10:52 29.54734 120.15288 29801 ft 476 kts 170°
2026-04-30 10:52 29.53110 120.16030 29982 ft 476 kts 170°
2026-04-30 10:52 29.50010 120.17452 30327 ft 475 kts 170°
2026-04-30 10:53 29.46941 120.18868 30695 ft 478 kts 170°
2026-04-30 10:53 29.43842 120.20307 31044 ft 477 kts 170°
2026-04-30 10:53 29.40731 120.21764 31405 ft 477 kts 170°
2026-04-30 10:53 29.37672 120.23213 31763 ft 474 kts 170°
2026-04-30 10:54 29.34620 120.24666 32102 ft 475 kts 170°
2026-04-30 10:54 29.31562 120.26132 32167 ft 473 kts 170°
2026-04-30 10:54 29.25501 120.29059 32190 ft 470 kts 170°
2026-04-30 10:55 29.19463 120.31970 32187 ft 468 kts 170°
2026-04-30 10:55 29.13417 120.34887 32186 ft 469 kts 170°
2026-04-30 10:56 29.07466 120.37770 32189 ft 470 kts 170°
2026-04-30 10:56 29.01452 120.40663 32184 ft 466 kts 170°
2026-04-30 10:57 28.95478 120.43556 32185 ft 462 kts 170°
2026-04-30 10:57 28.89500 120.46431 32189 ft 464 kts 170°
2026-04-30 10:58 28.83484 120.49294 32184 ft 460 kts 170°
2026-04-30 10:58 28.77560 120.52118 32192 ft 467 kts 170°
2026-04-30 10:59 28.71555 120.54954 32189 ft 460 kts 170°
2026-04-30 10:59 28.65671 120.57744 32192 ft 458 kts 170°
2026-04-30 11:00 28.59701 120.60535 32190 ft 461 kts 171°
2026-04-30 11:00 28.56662 120.61513 32192 ft 442 kts 182°
2026-04-30 11:00 28.53623 120.61981 32198 ft 429 kts 187°
2026-04-30 11:01 28.47654 120.62424 32194 ft 425 kts 189°
2026-04-30 11:01 28.41753 120.62756 32198 ft 423 kts 189°
2026-04-30 11:02 28.38869 120.62690 32193 ft 409 kts 201°
2026-04-30 11:02 28.36291 120.61643 32201 ft 375 kts 222°
2026-04-30 11:02 28.34368 120.59771 32213 ft 363 kts 234°
2026-04-30 11:02 28.32699 120.57597 32206 ft 360 kts 236°
2026-04-30 11:03 28.29152 120.53506 32203 ft 370 kts 230°
2026-04-30 11:04 28.22981 120.48165 32203 ft 373 kts 224°
2026-04-30 11:04 28.18658 120.44813 32208 ft 377 kts 223°
2026-04-30 11:05 28.14284 120.41500 32210 ft 378 kts 223°
2026-04-30 11:05 28.09912 120.38195 32208 ft 378 kts 223°
2026-04-30 11:06 28.05557 120.34900 32215 ft 379 kts 223°
2026-04-30 11:06 28.01185 120.31597 32213 ft 380 kts 223°
2026-04-30 11:07 27.96795 120.28287 32209 ft 377 kts 223°
2026-04-30 11:07 27.92391 120.24961 32211 ft 380 kts 222°
2026-04-30 11:08 27.87967 120.21630 32212 ft 380 kts 222°
2026-04-30 11:08 27.83570 120.18317 32214 ft 379 kts 222°
2026-04-30 11:09 27.79139 120.14979 32215 ft 386 kts 223°
2026-04-30 11:09 27.74710 120.11655 32213 ft 381 kts 222°
2026-04-30 11:10 27.70261 120.08313 32215 ft 384 kts 223°
2026-04-30 11:10 27.65791 120.04961 32213 ft 386 kts 222°
2026-04-30 11:11 27.61331 120.01622 32212 ft 385 kts 223°
2026-04-30 11:11 27.56848 119.98261 32211 ft 388 kts 222°
2026-04-30 11:12 27.52367 119.94918 32211 ft 385 kts 222°
2026-04-30 11:12 27.47881 119.91563 32212 ft 388 kts 222°
2026-04-30 11:13 27.43384 119.88210 32214 ft 387 kts 222°
2026-04-30 11:13 27.38873 119.84846 32213 ft 390 kts 222°
2026-04-30 11:14 27.34349 119.81477 32215 ft 390 kts 222°
2026-04-30 11:14 27.29805 119.78095 32214 ft 391 kts 222°
2026-04-30 11:15 27.25278 119.74733 32213 ft 391 kts 221°
2026-04-30 11:15 27.20723 119.71352 32215 ft 391 kts 222°
2026-04-30 11:16 27.16179 119.67978 32216 ft 395 kts 222°
2026-04-30 11:16 27.11610 119.64593 32214 ft 391 kts 222°
2026-04-30 11:17 27.07047 119.61215 32218 ft 396 kts 221°
2026-04-30 11:17 27.02436 119.57805 32216 ft 397 kts 221°
2026-04-30 11:18 26.97785 119.54369 32217 ft 395 kts 221°
2026-04-30 11:18 26.90891 119.49281 32220 ft 397 kts 221°
2026-04-30 11:19 26.86272 119.45879 32218 ft 398 kts 221°
2026-04-30 11:19 26.81640 119.42477 32218 ft 391 kts 221°
2026-04-30 11:20 26.79322 119.40766 32223 ft 403 kts 221°
2026-04-30 11:20 26.76956 119.39016 32218 ft 408 kts 221°
2026-04-30 11:20 26.72195 119.35518 32218 ft 405 kts 221°
2026-04-30 11:21 26.67459 119.32045 32216 ft 407 kts 220°
2026-04-30 11:21 26.62687 119.28552 32214 ft 407 kts 220°
2026-04-30 11:22 26.57980 119.25105 32215 ft 406 kts 220°
2026-04-30 11:22 26.53228 119.21630 32214 ft 406 kts 220°
2026-04-30 11:23 26.48450 119.18134 32213 ft 408 kts 220°
2026-04-30 11:24 26.41301 119.12912 32211 ft 409 kts 220°
2026-04-30 11:24 26.36514 119.09422 32210 ft 409 kts 220°
2026-04-30 11:25 26.29390 119.04234 32211 ft 408 kts 220°
2026-04-30 11:26 26.19781 118.97247 32203 ft 410 kts 219°
2026-04-30 11:26 26.14985 118.93765 32205 ft 410 kts 219°
2026-04-30 11:27 26.10163 118.90269 32206 ft 411 kts 219°
2026-04-30 11:27 26.05329 118.86766 32203 ft 413 kts 219°
2026-04-30 11:28 25.98109 118.81542 32201 ft 413 kts 219°
2026-04-30 11:29 25.93309 118.78075 32196 ft 413 kts 219°
2026-04-30 11:29 25.86141 118.72907 31020 ft 406 kts 219°
2026-04-30 11:30 25.81403 118.69494 29689 ft 401 kts 219°
2026-04-30 11:30 25.79081 118.67820 29039 ft 401 kts 219°
2026-04-30 11:30 25.76738 118.66129 28406 ft 405 kts 219°
2026-04-30 11:31 25.74354 118.64409 27772 ft 408 kts 219°
2026-04-30 11:31 25.71945 118.62672 27137 ft 411 kts 219°
2026-04-30 11:31 25.69525 118.60930 26505 ft 414 kts 219°
2026-04-30 11:31 25.67103 118.59190 25876 ft 415 kts 218°
2026-04-30 11:32 25.64688 118.57455 25254 ft 418 kts 218°
2026-04-30 11:32 25.62228 118.55688 24627 ft 420 kts 218°
2026-04-30 11:32 25.59773 118.53928 23999 ft 416 kts 218°
2026-04-30 11:33 25.54948 118.50474 22809 ft 411 kts 219°
2026-04-30 11:33 25.52539 118.48751 22217 ft 409 kts 219°
2026-04-30 11:33 25.50140 118.47034 21627 ft 405 kts 218°
2026-04-30 11:33 25.47794 118.45357 21045 ft 402 kts 218°
2026-04-30 11:34 25.45448 118.43679 20456 ft 398 kts 218°
2026-04-30 11:34 25.43118 118.42013 19866 ft 395 kts 218°
2026-04-30 11:34 25.40809 118.40362 19276 ft 391 kts 218°
2026-04-30 11:34 25.38527 118.38731 18685 ft 388 kts 218°
2026-04-30 11:35 25.36254 118.37106 18097 ft 385 kts 218°
2026-04-30 11:35 25.34024 118.35513 17833 ft 378 kts 218°
2026-04-30 11:35 25.31793 118.33917 17798 ft 383 kts 217°
2026-04-30 11:35 25.29548 118.32312 17784 ft 379 kts 217°
2026-04-30 11:36 25.27318 118.30719 17781 ft 384 kts 217°
2026-04-30 11:36 25.25067 118.29112 17790 ft 385 kts 217°
2026-04-30 11:36 25.22813 118.27505 17787 ft 384 kts 217°
2026-04-30 11:36 25.20595 118.25932 17774 ft 366 kts 217°
2026-04-30 11:37 25.18496 118.24448 17779 ft 354 kts 217°
2026-04-30 11:37 25.16385 118.22946 17779 ft 358 kts 217°
2026-04-30 11:37 25.14304 118.21461 17783 ft 358 kts 217°
2026-04-30 11:37 25.12200 118.19967 17782 ft 357 kts 217°
2026-04-30 11:38 25.10187 118.18417 17773 ft 353 kts 227°
2026-04-30 11:38 25.08838 118.16241 17780 ft 343 kts 252°
2026-04-30 11:38 25.08515 118.13671 17791 ft 340 kts 275°
2026-04-30 11:38 25.08941 118.11092 17791 ft 341 kts 284°
2026-04-30 11:39 25.09601 118.08580 17788 ft 342 kts 286°
2026-04-30 11:39 25.10320 118.06092 17787 ft 342 kts 287°
2026-04-30 11:39 25.11065 118.03571 17791 ft 341 kts 287°
2026-04-30 11:39 25.11803 118.01096 17789 ft 341 kts 287°
2026-04-30 11:40 25.12539 117.98633 17795 ft 342 kts 287°
2026-04-30 11:40 25.13281 117.96163 17795 ft 337 kts 288°
2026-04-30 11:40 25.14320 117.93816 17794 ft 343 kts 305°
2026-04-30 11:40 25.16149 117.92136 17797 ft 353 kts 330°
2026-04-30 11:41 25.18571 117.91472 17723 ft 367 kts 354°
2026-04-30 11:41 25.21114 117.91988 17396 ft 375 kts 19°
2026-04-30 11:41 25.22788 117.93140 17138 ft 376 kts 37°
2026-04-30 11:42 25.24013 117.94486 16920 ft 376 kts 45°
2026-04-30 11:42 25.25666 117.96739 16581 ft 378 kts 49°
2026-04-30 11:42 25.26748 117.98328 16347 ft 377 kts 50°
2026-04-30 11:42 25.27117 117.98879 16266 ft 377 kts 50°
2026-04-30 11:43 25.27917 118.00081 16071 ft 375 kts 50°
2026-04-30 11:43 25.28683 118.01236 15899 ft 374 kts 50°
2026-04-30 11:43 25.30062 118.03310 15540 ft 370 kts 51°
2026-04-30 11:43 25.30607 118.04126 15472 ft 369 kts 50°
2026-04-30 11:44 25.31981 118.06181 15150 ft 371 kts 50°
2026-04-30 11:44 25.33523 118.08482 14797 ft 369 kts 51°
2026-04-30 11:44 25.34798 118.10876 14442 ft 365 kts 68°
2026-04-30 11:44 25.35145 118.13604 14090 ft 363 kts 95°
2026-04-30 11:45 25.34378 118.16250 13730 ft 359 kts 123°
2026-04-30 11:45 25.32683 118.18195 13367 ft 350 kts 150°
2026-04-30 11:45 25.30448 118.19075 13016 ft 339 kts 178°
2026-04-30 11:45 25.28136 118.18985 12666 ft 332 kts 191°
2026-04-30 11:46 25.25849 118.18548 12376 ft 331 kts 194°
2026-04-30 11:46 25.23570 118.18034 12131 ft 334 kts 195°
2026-04-30 11:46 25.21307 118.17506 11890 ft 332 kts 195°
2026-04-30 11:46 25.19051 118.16973 11638 ft 331 kts 195°
2026-04-30 11:47 25.16785 118.16438 11397 ft 329 kts 195°
2026-04-30 11:47 25.14552 118.15906 11154 ft 328 kts 195°
2026-04-30 11:47 25.12330 118.15370 10906 ft 326 kts 195°
2026-04-30 11:47 25.10099 118.14831 10665 ft 325 kts 195°
2026-04-30 11:48 25.07890 118.14294 10419 ft 322 kts 195°
2026-04-30 11:48 25.05733 118.13766 10180 ft 311 kts 195°
2026-04-30 11:48 25.03676 118.13261 10081 ft 295 kts 195°
2026-04-30 11:48 25.01700 118.12773 10057 ft 279 kts 195°
2026-04-30 11:49 24.99813 118.12305 10062 ft 276 kts 196°
2026-04-30 11:49 24.98048 118.11528 10054 ft 271 kts 219°
2026-04-30 11:49 24.96734 118.10063 10074 ft 267 kts 233°
2026-04-30 11:49 24.95501 118.08497 10064 ft 267 kts 227°
2026-04-30 11:50 24.94101 118.07124 10062 ft 268 kts 225°
2026-04-30 11:50 24.93028 118.05494 10050 ft 263 kts 252°
2026-04-30 11:50 24.92942 118.03509 10068 ft 264 kts 283°
2026-04-30 11:50 24.93551 118.01596 10071 ft 263 kts 290°
2026-04-30 11:51 24.94125 117.99690 10063 ft 263 kts 284°
2026-04-30 11:51 24.94463 117.97688 9890 ft 264 kts 276°
2026-04-30 11:51 24.94514 117.95660 9652 ft 262 kts 266°
2026-04-30 11:51 24.94297 117.93680 9417 ft 262 kts 261°
2026-04-30 11:52 24.93911 117.91692 9095 ft 262 kts 257°
2026-04-30 11:52 24.93409 117.89749 8521 ft 269 kts 254°
2026-04-30 11:52 24.92776 117.87766 7916 ft 275 kts 250°
2026-04-30 11:52 24.91978 117.85857 7335 ft 279 kts 244°
2026-04-30 11:53 24.91594 117.85090 7167 ft 278 kts 242°
2026-04-30 11:53 24.90655 117.83430 7018 ft 268 kts 238°
2026-04-30 11:53 24.89541 117.81832 6804 ft 260 kts 225°
2026-04-30 11:53 24.87959 117.80876 6592 ft 256 kts 195°
2026-04-30 11:54 24.86216 117.80840 6401 ft 253 kts 172°
2026-04-30 11:54 24.84515 117.81415 6194 ft 256 kts 157°
2026-04-30 11:54 24.82965 117.82405 6080 ft 259 kts 148°
2026-04-30 11:54 24.81447 117.83556 6055 ft 262 kts 147°
2026-04-30 11:55 24.79935 117.84699 6047 ft 262 kts 147°
2026-04-30 11:55 24.78408 117.85819 6049 ft 263 kts 148°
2026-04-30 11:55 24.76893 117.86906 6049 ft 262 kts 148°
2026-04-30 11:55 24.76333 117.87305 6088 ft 262 kts 149°
2026-04-30 11:56 24.74798 117.88397 6062 ft 261 kts 149°
2026-04-30 11:56 24.73259 117.89491 6060 ft 262 kts 149°
2026-04-30 11:56 24.71726 117.90582 6060 ft 261 kts 149°
2026-04-30 11:56 24.70197 117.91666 6064 ft 262 kts 149°
2026-04-30 11:57 24.68647 117.92771 6054 ft 261 kts 149°
2026-04-30 11:57 24.67135 117.93857 6053 ft 262 kts 148°
2026-04-30 11:57 24.65591 117.94965 6055 ft 262 kts 148°
2026-04-30 11:57 24.64056 117.96065 6051 ft 262 kts 148°
2026-04-30 11:58 24.62545 117.97147 6044 ft 251 kts 148°
2026-04-30 11:58 24.61138 117.98148 6064 ft 236 kts 149°
2026-04-30 11:58 24.59767 117.99118 6050 ft 234 kts 149°
2026-04-30 11:58 24.58385 118.00097 6051 ft 234 kts 149°
2026-04-30 11:59 24.57005 118.01077 6052 ft 235 kts 150°
2026-04-30 11:59 24.55505 118.01675 6028 ft 230 kts 180°
2026-04-30 11:59 24.53991 118.01214 5768 ft 225 kts 216°
2026-04-30 11:59 24.52830 118.00120 5411 ft 222 kts 227°
2026-04-30 12:00 24.51724 117.98933 5041 ft 222 kts 226°
2026-04-30 12:00 24.50620 117.97746 4670 ft 222 kts 226°
2026-04-30 12:00 24.49585 117.96489 4299 ft 222 kts 234°
2026-04-30 12:00 24.48694 117.95113 3984 ft 219 kts 237°
2026-04-30 12:01 24.47835 117.93755 3942 ft 211 kts 237°
2026-04-30 12:01 24.47008 117.92464 3902 ft 204 kts 237°
2026-04-30 12:01 24.46182 117.91185 3597 ft 206 kts 237°
2026-04-30 12:01 24.45305 117.89945 3224 ft 207 kts 224°
2026-04-30 12:02 24.43977 117.89363 2934 ft 202 kts 176°
2026-04-30 12:02 24.42712 117.89905 2916 ft 191 kts 144°
2026-04-30 12:02 24.41628 117.90733 2914 ft 188 kts 143°
2026-04-30 12:02 24.40543 117.91547 2916 ft 188 kts 141°
2026-04-30 12:03 24.39765 117.92648 2910 ft 183 kts 101°
2026-04-30 12:03 24.40789 117.94965 2916 ft 172 kts 45°
2026-04-30 12:03 24.41618 117.95905 2913 ft 171 kts 45°
2026-04-30 12:04 24.42462 117.96838 2914 ft 170 kts 41°
2026-04-30 12:04 24.43364 117.97673 2917 ft 170 kts 38°
2026-04-30 12:04 24.44236 117.98553 2846 ft 170 kts 47°
2026-04-30 12:04 24.44964 117.99554 2686 ft 169 kts 51°
2026-04-30 12:05 24.45663 118.00549 2519 ft 160 kts 51°
2026-04-30 12:05 24.46340 118.01514 2260 ft 159 kts 53°
2026-04-30 12:05 24.47040 118.02477 1870 ft 161 kts 50°
2026-04-30 12:05 24.47736 118.03406 1502 ft 156 kts 51°
2026-04-30 12:06 24.48373 118.04283 1402 ft 129 kts 53°
2026-04-30 12:06 24.48910 118.05039 1269 ft 129 kts 52°
2026-04-30 12:06 24.49457 118.05787 1128 ft 127 kts 52°
2026-04-30 12:06 24.50017 118.06572 1059 ft 134 kts 53°
2026-04-30 12:07 24.50587 118.07370 940 ft 130 kts 53°
2026-04-30 12:07 24.51140 118.08151 747 ft 131 kts 53°
2026-04-30 12:07 24.51699 118.08939 629 ft 131 kts 54°
2026-04-30 12:07 24.52267 118.09746 494 ft 133 kts 53°
2026-04-30 12:08 24.52841 118.10557 337 ft 134 kts 54°
2026-04-30 12:08 24.53417 118.11362 153 ft 132 kts 54°
2026-04-30 12:08 24.53945 118.12114 71 ft 98 kts 52°
2026-04-30 12:08 24.54215 118.12489 71 ft 31 kts 51°
2026-04-30 12:09 24.54308 118.12621 71 ft 22 kts 52°
2026-04-30 12:09 24.54388 118.12734 71 ft 33 kts 52°
2026-04-30 12:09 24.54485 118.12894 71 ft 32 kts 68°
2026-04-30 12:09 24.54531 118.13131 71 ft 11 kts 108°
2026-04-30 12:10 24.54466 118.13152 71 ft 13 kts 181°
2026-04-30 12:10 24.54439 118.13161 71 ft 0 kts 144°